Location: Brantley
(31.5822°N, 86.2569°W)
Time: 20:34:23
(UTC+00:00)

Transit 2A Rocket - Pass Details

Date: 23 February 2026
Orbit: 583 x 900 km, 66.7° (Epoch: 8 March)

Event Time Altitude Azimuth Distance (km) Brightness Sun altitude
Rises 07:07:06 0° 314° (NW) 3,206 - -63.0°
Reaches altitude 10° 07:10:27 10° 293° (WNW) 2,206 - -62.6°
Maximum altitude 07:13:21 16° 257° (WSW) 1,791 - -62.1°
Drops below altitude 10° 07:16:07 10° 220° (SW) 2,081 - -61.7°
Sets 07:19:09 0° 198° (SSW) 2,928 - -61.3°
